Location: Memphis International Airport Police
(35.0443°N, 89.9815°W)
Time: 06:08:46
(UTC+00:00)

NOSS 3-1 (A) - Pass Details

Date: 26 September 2023
Orbit: 677 x 1534 km, 63.4° (Epoch: 03 November)

Event Time Altitude Azimuth Distance (km) Brightness Sun altitude
Rises 11:19:46 0° 328° (NNW) 4,037 6.4 -7.2°
Reaches altitude 10° 11:22:18 10° 328° (NNW) 3,183 5.9 -6.7°
Maximum altitude 11:30:15 86° 241° (WSW) 1,398 4.3 -5.0°
Drops below altitude 10° 11:39:28 10° 153° (SSE) 3,661 6.9 -3.2°
Sets 11:42:34 0° 153° (SSE) 4,669 7.4 -2.5°
